TimeCST,TemperatureF,Dew PointF,Humidity,Sea Level PressureIn,VisibilityMPH,Wind Direction,Wind SpeedMPH,Gust SpeedMPH,PrecipitationIn,Events,Conditions,WindDirDegrees,DateUTC
12:26 AM,39.2,37.4,93,30.09,2.5,Calm,Calm,-,N/A,,Clear,0,2013-02-14 06:26:00
12:33 AM,39.2,37.4,93,30.08,7.0,Calm,Calm,-,N/A,,Clear,0,2013-02-14 06:33:00
12:53 AM,39.0,37.0,93,30.11,9.0,Calm,Calm,-,N/A,,Clear,0,2013-02-14 06:53:00
1:27 AM,39.2,37.4,93,30.09,1.8,Calm,Calm,-,N/A,,Clear,0,2013-02-14 07:27:00
1:33 AM,39.2,37.4,93,30.09,0.8,Calm,Calm,-,N/A,,Mist,0,2013-02-14 07:33:00
1:41 AM,37.4,37.4,100,30.09,1.2,Calm,Calm,-,N/A,,Partly Cloudy,0,2013-02-14 07:41:00
1:49 AM,37.4,37.4,100,30.09,0.8,Calm,Calm,-,N/A,,Mist,0,2013-02-14 07:49:00
1:53 AM,37.9,36.0,93,30.11,0.5,Calm,Calm,-,N/A,Fog,Fog,0,2013-02-14 07:53:00
2:49 AM,39.2,37.4,93,30.09,1.2,Calm,Calm,-,N/A,,Partly Cloudy,0,2013-02-14 08:49:00
2:51 AM,39.2,37.4,93,30.09,3.0,Calm,Calm,-,N/A,,Partly Cloudy,0,2013-02-14 08:51:00
2:53 AM,39.0,37.9,96,30.11,7.0,Calm,Calm,-,N/A,,Partly Cloudy,0,2013-02-14 08:53:00
3:13 AM,35.6,35.6,100,30.09,2.0,Calm,Calm,-,N/A,,Clear,0,2013-02-14 09:13:00
3:32 AM,35.6,35.6,100,30.10,6.0,Calm,Calm,-,N/A,,Clear,0,2013-02-14 09:32:00
3:53 AM,36.0,35.1,97,30.13,3.0,Calm,Calm,-,N/A,,Clear,0,2013-02-14 09:53:00
3:55 AM,35.6,33.8,93,30.10,1.8,South,3.5,-,N/A,,Clear,170,2013-02-14 09:55:00
4:05 AM,35.6,33.8,93,30.10,3.0,South,3.5,-,N/A,,Clear,180,2013-02-14 10:05:00
4:53 AM,37.0,35.1,93,30.14,7.0,South,4.6,-,N/A,,Clear,190,2013-02-14 10:53:00
5:53 AM,37.0,35.1,93,30.15,7.0,Calm,Calm,-,N/A,,Clear,0,2013-02-14 11:53:00
6:28 AM,35.6,33.8,93,30.12,1.8,Calm,Calm,-,N/A,,Clear,0,2013-02-14 12:28:00
6:36 AM,35.6,33.8,93,30.12,0.2,Calm,Calm,-,N/A,Fog,Fog,0,2013-02-14 12:36:00
6:53 AM,35.1,34.0,96,30.15,0.2,Calm,Calm,-,N/A,Fog,Fog,0,2013-02-14 12:53:00
7:03 AM,35.6,33.8,93,30.13,0.2,Calm,Calm,-,N/A,Fog,Fog,0,2013-02-14 13:03:00
7:49 AM,39.2,37.4,93,30.13,1.2,Calm,Calm,-,N/A,,Scattered Clouds,0,2013-02-14 13:49:00
7:53 AM,39.0,39.0,100,30.16,3.0,Calm,Calm,-,N/A,,Partly Cloudy,0,2013-02-14 13:53:00
8:53 AM,44.1,42.1,93,30.18,10.0,Calm,Calm,-,N/A,,Clear,0,2013-02-14 14:53:00
9:53 AM,48.0,42.1,80,30.18,10.0,Calm,Calm,-,N/A,,Clear,0,2013-02-14 15:53:00
10:53 AM,51.1,39.0,63,30.18,10.0,Calm,Calm,-,N/A,,Clear,0,2013-02-14 16:53:00
11:53 AM,54.0,39.0,57,30.17,10.0,Calm,Calm,-,N/A,,Clear,0,2013-02-14 17:53:00
12:53 PM,55.9,39.9,55,30.15,10.0,Calm,Calm,-,N/A,,Clear,0,2013-02-14 18:53:00
1:53 PM,57.9,37.0,46,30.12,10.0,Calm,Calm,-,N/A,,Clear,0,2013-02-14 19:53:00
2:53 PM,57.9,37.9,47,30.11,10.0,Calm,Calm,-,N/A,,Clear,0,2013-02-14 20:53:00
3:53 PM,57.9,37.0,46,30.10,10.0,Calm,Calm,-,N/A,,Clear,0,2013-02-14 21:53:00
4:53 PM,57.9,37.9,47,30.10,10.0,Calm,Calm,-,N/A,,Clear,0,2013-02-14 22:53:00
5:53 PM,55.0,42.1,62,30.11,10.0,Calm,Calm,-,N/A,,Clear,0,2013-02-14 23:53:00
6:53 PM,51.1,44.1,77,30.12,10.0,Calm,Calm,-,N/A,,Clear,0,2013-02-15 00:53:00
7:53 PM,46.0,43.0,89,30.12,10.0,Calm,Calm,-,N/A,,Clear,0,2013-02-15 01:53:00
8:53 PM,46.0,42.1,86,30.13,10.0,South,3.5,-,N/A,,Clear,170,2013-02-15 02:53:00
9:53 PM,45.0,42.1,90,30.14,10.0,Calm,Calm,-,N/A,,Clear,0,2013-02-15 03:53:00
10:53 PM,44.1,41.0,89,30.14,10.0,Calm,Calm,-,N/A,,Clear,0,2013-02-15 04:53:00
11:53 PM,41.0,39.0,93,30.14,10.0,Calm,Calm,-,N/A,,Clear,0,2013-02-15 05:53:00